Regional Weather Roundup
Issued by NWS

Home | Current Version | Previous Version | Graphics & Text | Print | Product List | Glossary Off
Versions: 1 2 3 4 5 6 7 8 9 10 11 12 13 14 15 16 17 18 19 20 21 22 23 24 25 26 27 28 29 30 31 32 33 34 35 36 37 38 39 40 41 42 43 44 45 46 47 48 49 50

000
ASUS45 KSLC 120010
RWRUT

UTAH REGIONAL WEATHER ROUNDUP
NATIONAL WEATHER SERVICE SALT LAKE CITY UT
500 PM MST THU FEB 11 2016

UTZ001>011-023>025-120100-

NORTHERN UTAH

CITY           SKY/WX    TMP DP  RH WIND       PRES   REMARKS
BRIGHAM CITY   CLOUDY    28  25  89 NW3       30.46S
DUGWAY         CLOUDY    33  30  89 W6        30.43  WCI  27
HILL AFB       PTCLDY    30  26  84 NW5       30.42R HAZE    WCI  25
LOGAN          CLOUDY    24  22  91 W3        30.43F FOG
OGDEN          MOCLDY    27  26  96 NW5       30.43R FOG     WCI  22
PROVO AIRPORT  FOG       25  21  86 MISG      30.43S VSB 3/4
SALT LAKE CITY MOCLDY    32  27  81 NW6       30.43R HAZE    WCI  26
VERNAL         CLOUDY    28  19  69 CALM      30.39R HAZE
WENDOVER       CLOUDY    30  27  86 CALM      30.45R
HEBER CITY     CLEAR     34  21  60 CALM      30.37S
WEST JORDAN    CLEAR     32  28  86 NW3       30.41F

$$

UTZ012>022-026-027-120100-

SOUTHERN/CENTRAL UTAH

CITY           SKY/WX    TMP DP  RH WIND       PRES   REMARKS
BLANDING       CLEAR     44  28  54 CALM      30.43S
BRYCE CANYON   SUNNY     41  24  51 SE10      30.40R
CEDAR CITY     MOSUNNY   42  28  57 N3        30.34R
DELTA          PTSUNNY   22  21  97 CALM      30.42S
HANKSVILLE     CLEAR     46  34  61 N5        30.39S
MILFORD        PTSUNNY   23  18  81 N9        30.38R WCI  13
MOAB/CYNLANDS  CLEAR     42  30  62 NW5       30.36S
PRICE          CLEAR     43  26  51 CALM      30.37R
ST GEORGE      CLEAR     66  25  20 CALM      30.24S
KANAB          SUNNY     66  30  26 E9        30.33R

$$

REGIONAL REPORTS     COLORADO/ARIZONA

CITY           SKY/WX    TMP DP  RH WIND       PRES   REMARKS
CRAIG, CO      CLOUDY    26  18  71 CALM      30.38R
GRAND JUNCTION CLEAR     40  29  64 N6        30.37S
RIFLE          CLEAR     41  21  44 CALM      30.36S
MONTROSE       CLOUDY    46  25  43 NW5       30.38R
CORTEZ         CLOUDY    51  24  34 VRB3      30.34S
PAGE, AZ       SUNNY     55  30  38 N5        30.32R
GRAND CANYON   SUNNY     62  18  18 NE9       30.37R
KINGMAN        SUNNY     73  21  14 N6        30.21S
FLAGSTAFF      SUNNY     57  18  21 E7        30.38R

$$

REGIONAL REPORTS    NEVADA/IDAHO/WYOMING

CITY           SKY/WX    TMP DP  RH WIND       PRES   REMARKS
LAS VEGAS, NV  MOSUNNY   73  20  13 N5        30.15S
ELY            PTSUNNY   38  27  64 S8        30.34S WCI  32
ELKO           PTSUNNY   36  23  59 E3        30.35S
POCATELLO, ID  CLOUDY    34  25  69 NE6       30.38S WCI  29
BURLEY         CLEAR     39  30  70 NE9       30.32S WCI  33
EVANSTON, WY   CLOUDY    41  20  43 SW8       30.39R
ROCK SPRINGS   CLOUDY    42  21  43 W20G28    30.34R
KEMMERER       CLOUDY    37  21  52 W3        30.38S

$$



USA.gov is the U.S. government's official web portal to all federal, state and local government web resources and services.